MEASAT 3D

Last updated on Mon Sep 15 2025 00:02:50 GMT+0000 (Coordinated Universal Time)

1 52904U 22067B 25257.04299950 -.00000253 00000+0 00000+0 0 9995 2 52904 0.0374 331.0113 0001972 273.9563 215.2942 1.00270724 11888
UTC large
Height (km)
Speed (km/s)
/
Latitude / Longitude
Inclination (degrees)
Orbital Period (minutes)
Azimuth
Elevation
Range (km)
Doppler Factor

Next 0 passes for location: London (51.5072 / 0.1276)

Sorry there are no passes over London.